www.pogodaiklimat.ru

Погода и климат >> Архив погоды >> Россия >> Дагестан >> Бабаюрт


ПОГОДА в Бабаюрте

  • Прогноз погоды в Бабаюрте
  • Монитор погоды в Бабаюрте

АРХИВ ПОГОДЫ в Бабаюрте

Время (UTC), дата Ветер
(напр.,м/с)
 
Видим.   Явления Облачность Т
(С)
Тd
(С)
f
(%)
Тe
(С)
Тes
(С)
Комфортность P
(гПа)
Po
(гПа)
Тmin
(С)
Tmax
(С)
R
(мм)
R24
(мм)
S
(см)
03 17.08 В 3 20 км 6/4 600 м
[Sc Ci]
+23.0 +19.0 78 +29 +29 очень
душно
1006.8 1006.9 +22.2
06 17.08 В 3 20 км ясно +26.8 +18.3 60 +32 +40 очень
душно
1009.3 1009.6
09 17.08 В 5 20 км 4/0
[Ac lent]
+31.2 +12.3 31 +32 +38 жарко 1007.7 1007.8
12 17.08 ЮВ 6-11
{12}
20 км ясно +31.0 +11.8 31 +31 +35 жарко 1007.2 1007.4
15 17.08 В 3
{12}
20 км ясно +27.1 +15.7 50 +30 +31 душно 1008.1 1008.3 +31.4
18 17.08 В 2 20 км ясно +24.0 +18.2 70 +28 +28 душно 1009.6 1009.8
21 17.08 В 1 20 км ясно +22.5 +18.2 77 +28 +28 душно 1009.6 1009.8
00 18.08 В 2 20 км ясно +22.1 +18.0 78 +27 +27 душно 1009.0 1009.2
03 18.08 В 3 20 км ясно +23.5 +16.2 64 +27 +27 душно 1007.6 1007.8 +21.9
06 18.08 В 5-11
{11}
20 км 6/4 600 м
[Sc Ac cast]
+28.2 +13.8 41 +30 +32 жарко 1006.7 1006.9
09 18.08 В 6-13
{14}
20 км 6/0
[Ac cast Cc]
+32.4 +12.3 29 +33 +37 жарко 1006.3 1006.5
12 18.08 В 6-14
{17}
20 км 3/0
[Cc]
+32.0 +11.6 29 +32 +36 жарко 1006.2 1006.3
15 18.08 ЮВ 4
{15}
20 км 8/3 600 м
[Sc diur, vesp Ac cast Cc]
+27.2 +15.7 49 +30 +30 душно 1007.6 1007.8 +33.4
18 18.08 В 2 20 км 9/0
[Cc]
+23.6 +18.0 71 +28 +28 душно 1009.8 1010.0
21 18.08 ЮВ 2 н/о н/о +21.8 +18.7 83 +27 +27 душно 1010.5 1010.7
00 19.08 В 2 20 км ясно +21.2 +17.2 78 +25 +25 комфорт 1011.2 1011.4
03 19.08 ЮВ 1 20 км 3/0
[Cc]
+21.5 +19.7 89 +27 +27 душно 1012.6 1012.8 +20.1
06 19.08 В 1 20 км ясно +29.6 +19.6 55 +36 +47 очень
душно
1013.4 1013.6
09 19.08 В 3 20 км ясно +34.7 +12.3 26 +35 +48 очень
жарко
1012.9 1013.1
12 19.08 В 5
{10}
20 км ясно +33.7 +11.9 27 +34 +38 очень
жарко
1013.1 1013.3
15 19.08 В 3 20 км ясно +28.5 +15.5 45 +31 +32 душно 1013.8 1014.0 +35.8
18 19.08 В 2 20 км ясно +23.2 +19.3 79 +30 +30 очень
душно
1014.9 1015.1
21 19.08 В 2 20 км ясно +21.8 +19.4 86 +27 +27 душно 1015.0 1015.2
00 20.08 В 3 20 км ясно +21.8 +19.4 86 +27 +27 душно 1014.9 1015.1
03 20.08 СВ 1 20 км ясно +20.4 +18.4 88 +25 +26 комфорт 1015.4 1015.6 +20.4
06 20.08 В 3 20 км ясно +29.9 +17.6 48 +34 +42 очень
душно
1015.9 1016.0 +20.4
09 20.08 В 5 20 км ясно +33.8 +14.5 31 +35 +44 очень
жарко
1015.2 1015.4
12 20.08 В 5-11
{12}
20 км ясно +32.5 +14.4 33 +34 +38 очень
жарко
1014.3 1014.5
15 20.08 В 4
{11}
20 км ясно +28.1 +17.0 51 +32 +32 душно 1014.3 1014.5 +34.1
18 20.08 В 3 20 км ясно +22.9 +19.3 80 +29 +29 очень
душно
1015.2 1015.4
21 20.08 СВ 2 20 км ясно +21.8 +18.8 83 +27 +27 душно 1014.2 1014.4
00 21.08 В 2 20 км ясно +21.3 +18.7 85 +26 +26 душно 1014.3 1014.5
03 21.08 В 2 20 км ясно +21.2 +19.2 88 +26 +26 душно 1014.5 1014.7 +20.3
06 21.08 В 4 20 км ясно +30.4 +13.2 35 +32 +38 жарко 1014.6 1014.7
09 21.08 В 4 20 км ясно +35.4 +9.3 20 +34 +45 очень
жарко
1012.8 1013.0
12 21.08 В 5-10
{12}
н/о н/о +34.8 +8.2 20 +33 +33 жарко 1011.7 1011.9
15 21.08 В 4
{10}
20 км ясно +29.3 +15.6 43 +32 +32 душно 1011.6 1011.8 +35.9
18 21.08 В 2 20 км ясно +22.9 +20.7 87 +30 +30 очень
душно
1011.6 1011.7
21 21.08 СВ 3 20 км ясно +21.7 +20.4 92 +27 +27 душно 1011.1 1011.3
00 22.08 В 2 н/о н/о +21.4 +20.0 92 +27 +27 душно 1011.2 1011.3
03 22.08 В 2 20 км ясно +21.9 +20.2 90 +28 +28 душно 1011.3 1011.5 +20.8
06 22.08 СВ 3 20 км ясно +29.8 +19.8 55 +36 +44 очень
душно
1010.9 1011.1
09 22.08 В 5
{11}
20 км ясно +35.0 +11.1 23 +34 +43 очень
жарко
1010.2 1010.4
12 22.08 В 6
{11}
20 км ясно +34.3 +8.7 21 +33 +36 жарко 1009.9 1010.0
15 22.08 В 4
{10}
20 км ясно +29.2 +13.2 37 +31 +31 жарко 1010.2 1010.3 +35.7
18 22.08 СВ 2 20 км ясно +23.2 +15.0 60 +27 +27 душно 1011.4 1011.6
21 22.08 В 3 20 км 3/0
[Ci sp]
+22.1 +19.0 83 +28 +28 душно 1011.0 1011.2
00 23.08 штиль 0 20 км ясно +19.8 +17.9 89 +22 +22 комфорт 1010.6 1010.8
03 23.08 С 1 20 км ясно +19.5 +18.0 91 +23 +23 комфорт 1010.9 1011.1 +19.3
06 23.08 В 2 20 км 4/0
[Ci]
+27.9 +20.5 64 +35 +43 очень
душно
1011.5 1011.7
09 23.08 ЮВ 1 20 км 6/0
[Cc]
+33.9 +18.1 39 +38 +54 опасность
солнечного
удара
1010.7 1010.8
12 23.08 В 4
{11}
20 км 8/0
[Ci]
+34.1 +11.2 25 +34 +38 очень
жарко
1009.4 1009.6
15 23.08 СВ 3
{10}
20 км 6/0
[Cc]
+28.9 +18.8 54 +34 +34 очень
душно
1009.8 1009.9 +36.3
18 23.08 СВ 1 20 км ясно +24.2 +20.5 80 +30 +30 очень
душно
1011.1 1011.3
21 23.08 штиль 0 20 км 3/0
[Ci]
+21.7 +19.7 88 +27 +27 душно 1010.8 1011.0
00 24.08 СВ 1 20 км ясно +20.6 +19.3 92 +26 +26 душно 1010.9 1011.1

 

Местоположение метеостанции Бабаюрт (Дагестан, Россия): широта 43.60 долгота 46.78 высота над уровнем моря -2 м.

В архиве по умолчанию представлена погода в Бабаюрте за последнюю неделю. Архивные данные за месяц целиком и за предыдущие месяцы, начиная с января 2011 года, Вы можете получить, выбрав интересующий диапазон дат из раскрывающегося списка и нажав кнопку "Ввод!".


*Определитесь, кто Вы:
робот инопланетянин человек

Внимание! Время в таблицах - всемирное. Для получения местного времени необходимо прибавить поправку, которая равна 3 ч.

Смотрите также архив погоды в соседних городах и на ближайших метеорологических станциях:

Погода в Кизляре (Дагестан, Россия) (26 км)
Погода в Шелковской (Чечня, Россия) (34 км)
Погода в Хасавюрте (Дагестан, Россия) (42 км)
Погода в Гудермесе (Чечня, Россия) (60 км)
Погода в Махачкале (Дагестан, Россия) (86 км)
Погода в Кочубее (Дагестан, Россия) (91 км)
Погода в Буйнакске (Дагестан, Россия) (91 км)
Погода в Терекли-Мектебе (Дагестан, Россия) (93 км)
Погода в Грозном (Чечня, Россия) (94 км)
Погода на Острове Тюлений (Дагестан, Россия) (112 км)

Пояснения к столбцам:

Ветер - указаны скорость ветра в м/с - средняя за 10 мин, порывы в срок и между сроками (в фигурных скобках) и направление, откуда дует ветер: С - северный, СВ - северо-восточный, В - восточный, ЮВ - юго-восточный, Ю - южный, ЮЗ - юго-западный, З - западный, СЗ - северо-западный.
Видимость - горизонтальная дальность видимости в метрах или километрах. При видимости от 1 до 10 км при отсутствии осадков обычно наблюдается дымка, при ухудшении видимости до 1 км и менее - туман. В сухую погоду видимость может ухудшаться дымом, пылью или мглою.
Явления - указаны атмосферные явления, наблюдавшиеся в срок или в последний час перед сроком; фигурными скобками обозначены явления, наблюдавшиеся между сроками (за 1-3 часа до срока); квадратными скобками обозначены град или гололедные отложения с указанием их диаметра в мм.
Облачность - указаны через наклонную черту общая и нижняя облачность в баллах и высота нижней границы облаков в метрах; квадратными скобками обозначены формы облаков: Ci - перистые, Cs - перисто-слоистые, Cc - перисто-кучевые, Ac - высококучевые, As - высокослоистые, Sc - слоисто-кучевые, Ns - слоисто-дождевые, Cu - кучевые, Cb - кучево-дождевые. Подробнее классификацию облаков см. в Атласе облаков (PDF).
T - Температура воздуха - температура, измеренная на высоте 2 м над землей.
Td - Температура точки росы - температура, при понижении до которой содержащийся в воздухе водяной пар достигнет насыщения.
f - Относительная влажность воздуха - влажноcть воздуха, измеренная на высоте 2 м над землей.
Te - Эффективная температура - температура, которую ощущает одетый по сезону человек в тени. Характеристика душности погоды. При расчете учитывается влияние влажности воздуха и скорости ветра на теплоощущения человека.
Tes - Эффективная температура на солнце - температура, которую ощущает человек, с поправкой на солнечный нагрев. Характеристика знойности погоды. Зависит от высоты солнца над горизонтом, облачности и скорости ветра. Ночью, в пасмурную погоду, а также при ветре 12 м/с и более поправка равна нулю.
P - Атмосферное давление - приведенное к уровню моря атмосферное давление.
Po - Атмосферное давление - измеренное на уровне метеостанции атмосферное давление.
Tmin - Минимальная температура - минимум температуры воздуха на высоте 2 м над землей.
Tmax - Максимальная температура - максимум температуры воздуха на высоте 2 м над землей.
R - Количество осадков - Количество выпавших осадков за период времени, мм. При наведении курсора мыши на число - период времени, за который выпало указанное количество осадков.
R24 - Количество осадков - Количество выпавших осадков за 24 часа, мм.
S - Снежный покров - Высота снежного покрова, см. При наведении курсора мыши на число - состояние снежного покрова и степень покрытия местности в баллах.